Location: Bethel Cemetery
(33.4585°N, 96.4003°W)
Time: 10:29:21
(UTC+00:00)

Aureole 1 Rocket - Pass Details

Date: 11 December 2025
Orbit: 372 x 1167 km, 73.9° (Epoch: 18 January)

Event Time Altitude Azimuth Distance (km) Brightness Sun altitude
Rises 23:53:15 0° 180° (S) 2,556 6.6 -7.4°
Reaches altitude 10° 23:55:13 10° 174° (S) 1,773 5.6 -7.8°
Maximum altitude 23:58:59 46° 100° (E) 834 3.4 -8.5°
Drops below altitude 10° 00:03:43 10° 29° (NNE) 2,234 5.5 -9.5°
Enters shadow 00:05:46 - 24° (NNE) 3,045 6.2 -9.9°
